Time,TemperatureF,DewpointF,PressureIn,WindDirection,WindDirectionDegrees,WindSpeedMPH,WindSpeedGustMPH,Humidity,HourlyPrecipIn,Conditions,Clouds,dailyrainin,SoftwareType,DateUTC
2013-03-20 00:00:00,44.5,40.5,29.29,North,0,0.0,0.0,86,0.05,,,0.00,WUHU216HW,2013-03-20 07:00:00,
2013-03-20 00:05:00,44.5,40.5,29.29,North,0,0.0,0.0,86,0.05,,,0.00,WUHU216HW,2013-03-20 07:05:00,
2013-03-20 00:10:00,44.5,40.5,29.28,North,0,0.0,0.0,86,0.05,,,0.01,WUHU216HW,2013-03-20 07:10:00,
2013-03-20 00:15:00,44.5,40.9,29.28,North,0,0.0,0.0,87,0.05,,,0.01,WUHU216HW,2013-03-20 07:15:00,
2013-03-20 00:20:00,44.6,41.1,29.28,North,0,0.0,0.0,87,0.06,,,0.02,WUHU216HW,2013-03-20 07:20:00,
2013-03-20 00:25:00,44.6,41.1,29.27,North,0,0.0,0.0,87,0.05,,,0.02,WUHU216HW,2013-03-20 07:25:00,
2013-03-20 00:30:00,44.6,41.1,29.27,North,0,0.0,0.0,87,0.06,,,0.03,WUHU216HW,2013-03-20 07:30:00,
2013-03-20 00:35:00,44.6,41.1,29.27,North,0,0.0,0.0,87,0.06,,,0.04,WUHU216HW,2013-03-20 07:35:00,
2013-03-20 00:40:00,44.6,41.1,29.27,North,0,0.0,0.0,87,0.06,,,0.04,WUHU216HW,2013-03-20 07:40:00,
2013-03-20 00:45:00,44.6,41.1,29.27,North,0,0.0,0.0,87,0.06,,,0.04,WUHU216HW,2013-03-20 07:45:00,
2013-03-20 00:50:00,44.6,41.3,29.27,North,0,0.0,0.0,88,0.06,,,0.05,WUHU216HW,2013-03-20 07:50:00,
2013-03-20 00:55:00,44.6,41.3,29.27,North,0,0.0,0.0,88,0.07,,,0.06,WUHU216HW,2013-03-20 07:55:00,
2013-03-20 01:00:00,44.6,41.3,29.27,North,0,0.0,0.0,88,0.06,,,0.06,WUHU216HW,2013-03-20 08:00:00,
2013-03-20 01:05:00,44.6,41.3,29.26,North,0,0.0,0.0,88,0.07,,,0.07,WUHU216HW,2013-03-20 08:05:00,
2013-03-20 01:10:00,44.6,41.3,29.26,North,0,0.0,0.0,88,0.07,,,0.08,WUHU216HW,2013-03-20 08:10:00,
2013-03-20 01:15:00,44.6,41.3,29.25,North,0,0.0,0.0,88,0.08,,,0.09,WUHU216HW,2013-03-20 08:15:00,
2013-03-20 01:20:00,44.6,41.3,29.26,North,0,0.0,0.0,88,0.07,,,0.09,WUHU216HW,2013-03-20 08:20:00,
2013-03-20 01:25:00,44.6,41.3,29.26,North,0,0.0,0.0,88,0.08,,,0.10,WUHU216HW,2013-03-20 08:25:00,
2013-03-20 01:30:00,44.6,41.3,29.25,North,0,0.0,0.0,88,0.07,,,0.10,WUHU216HW,2013-03-20 08:30:00,
2013-03-20 01:35:00,44.6,41.7,29.24,North,0,0.0,0.0,89,0.07,,,0.11,WUHU216HW,2013-03-20 08:35:00,
2013-03-20 01:40:00,44.8,41.9,29.24,North,0,0.0,0.0,89,0.08,,,0.12,WUHU216HW,2013-03-20 08:40:00,
2013-03-20 01:45:00,44.8,41.9,29.23,North,0,0.0,0.0,89,0.07,,,0.12,WUHU216HW,2013-03-20 08:45:00,
2013-03-20 01:50:00,44.8,41.9,29.23,North,0,0.0,0.0,89,0.07,,,0.12,WUHU216HW,2013-03-20 08:50:00,
2013-03-20 01:55:00,45.0,42.0,29.23,North,0,0.0,0.0,89,0.06,,,0.12,WUHU216HW,2013-03-20 08:55:00,
2013-03-20 02:00:00,45.0,42.0,29.23,North,0,0.0,0.0,89,0.06,,,0.12,WUHU216HW,2013-03-20 09:00:00,
2013-03-20 02:05:00,45.2,42.2,29.23,North,0,0.0,0.0,89,0.05,,,0.12,WUHU216HW,2013-03-20 09:05:00,
2013-03-20 02:10:00,45.2,42.2,29.22,North,0,0.0,0.0,89,0.04,,,0.12,WUHU216HW,2013-03-20 09:10:00,
2013-03-20 02:15:00,45.2,42.2,29.22,North,0,0.0,0.0,89,0.04,,,0.13,WUHU216HW,2013-03-20 09:15:00,
2013-03-20 02:20:00,45.4,42.4,29.22,North,0,0.0,0.0,89,0.03,,,0.13,WUHU216HW,2013-03-20 09:20:00,
2013-03-20 02:25:00,45.4,42.4,29.22,North,0,0.0,0.0,89,0.03,,,0.13,WUHU216HW,2013-03-20 09:25:00,
2013-03-20 02:30:00,45.5,42.6,29.22,North,0,0.0,0.0,89,0.03,,,0.13,WUHU216HW,2013-03-20 09:30:00,
2013-03-20 02:35:00,45.5,42.2,29.22,North,0,0.0,0.0,88,0.02,,,0.13,WUHU216HW,2013-03-20 09:35:00,
2013-03-20 02:40:00,45.7,42.4,29.22,North,0,0.0,0.0,88,0.01,,,0.13,WUHU216HW,2013-03-20 09:40:00,
2013-03-20 02:45:00,45.7,42.4,29.22,North,0,0.0,0.0,88,0.02,,,0.14,WUHU216HW,2013-03-20 09:45:00,
2013-03-20 02:50:00,45.7,42.4,29.21,North,0,0.0,0.0,88,0.02,,,0.14,WUHU216HW,2013-03-20 09:50:00,
2013-03-20 02:55:00,45.7,42.4,29.20,North,0,0.0,0.0,88,0.02,,,0.14,WUHU216HW,2013-03-20 09:55:00,
2013-03-20 03:00:00,45.7,42.4,29.20,North,0,0.0,0.0,88,0.02,,,0.14,WUHU216HW,2013-03-20 10:00:00,
2013-03-20 03:05:00,45.9,42.6,29.20,North,0,0.0,0.0,88,0.02,,,0.14,WUHU216HW,2013-03-20 10:05:00,
2013-03-20 03:10:00,45.9,42.6,29.20,North,0,0.0,0.0,88,0.02,,,0.14,WUHU216HW,2013-03-20 10:10:00,
2013-03-20 03:15:00,46.1,42.8,29.20,North,0,0.0,0.0,88,0.01,,,0.14,WUHU216HW,2013-03-20 10:15:00,
2013-03-20 03:20:00,46.1,42.8,29.19,North,0,0.0,0.0,88,0.01,,,0.14,WUHU216HW,2013-03-20 10:20:00,
2013-03-20 03:25:00,46.1,42.8,29.19,North,0,0.0,0.0,88,0.01,,,0.14,WUHU216HW,2013-03-20 10:25:00,
2013-03-20 03:30:00,46.3,42.9,29.19,North,0,0.0,0.0,88,0.01,,,0.14,WUHU216HW,2013-03-20 10:30:00,
2013-03-20 03:35:00,46.4,43.1,29.19,North,0,0.0,0.0,88,0.01,,,0.14,WUHU216HW,2013-03-20 10:35:00,
2013-03-20 03:40:00,46.4,42.9,29.19,North,0,0.0,0.0,87,0.01,,,0.14,WUHU216HW,2013-03-20 10:40:00,
2013-03-20 03:45:00,46.4,43.1,29.18,North,0,0.0,0.0,88,0.00,,,0.14,WUHU216HW,2013-03-20 10:45:00,
2013-03-20 03:50:00,46.4,43.1,29.17,North,0,0.0,0.0,88,0.00,,,0.14,WUHU216HW,2013-03-20 10:50:00,
2013-03-20 03:55:00,46.6,43.3,29.17,North,0,0.0,0.0,88,0.00,,,0.14,WUHU216HW,2013-03-20 10:55:00,
2013-03-20 04:00:00,46.6,43.3,29.17,North,0,0.0,0.0,88,0.01,,,0.15,WUHU216HW,2013-03-20 11:00:00,
2013-03-20 04:05:00,46.8,43.5,29.17,North,0,0.0,0.0,88,0.01,,,0.15,WUHU216HW,2013-03-20 11:05:00,
2013-03-20 04:10:00,46.8,43.5,29.16,North,0,0.0,0.0,88,0.01,,,0.15,WUHU216HW,2013-03-20 11:10:00,
2013-03-20 04:15:00,47.0,43.7,29.16,North,0,0.0,0.0,88,0.01,,,0.15,WUHU216HW,2013-03-20 11:15:00,
2013-03-20 04:20:00,47.0,43.4,29.16,North,0,0.0,0.0,87,0.01,,,0.15,WUHU216HW,2013-03-20 11:20:00,
2013-03-20 04:25:00,47.2,43.6,29.16,North,0,0.0,0.0,87,0.01,,,0.15,WUHU216HW,2013-03-20 11:25:00,
2013-03-20 04:30:00,47.2,43.6,29.16,North,0,0.0,0.0,87,0.01,,,0.15,WUHU216HW,2013-03-20 11:30:00,
2013-03-20 04:35:00,47.3,43.7,29.15,North,0,0.0,0.0,87,0.01,,,0.15,WUHU216HW,2013-03-20 11:35:00,
2013-03-20 04:40:00,47.3,43.7,29.14,North,0,0.0,0.0,87,0.01,,,0.15,WUHU216HW,2013-03-20 11:40:00,
2013-03-20 04:45:00,47.3,43.7,29.14,North,0,0.0,0.0,87,0.01,,,0.15,WUHU216HW,2013-03-20 11:45:00,
2013-03-20 04:50:00,47.5,43.8,29.14,North,0,0.0,0.0,87,0.01,,,0.15,WUHU216HW,2013-03-20 11:50:00,
2013-03-20 04:55:00,47.5,43.8,29.14,North,0,0.0,0.0,87,0.01,,,0.15,WUHU216HW,2013-03-20 11:55:00,
2013-03-20 05:00:00,47.5,43.8,29.14,North,0,0.0,0.0,87,0.01,,,0.16,WUHU216HW,2013-03-20 12:00:00,
2013-03-20 05:05:00,47.5,43.8,29.13,North,0,0.0,0.0,87,0.01,,,0.16,WUHU216HW,2013-03-20 12:05:00,
2013-03-20 05:10:00,47.5,43.8,29.13,North,0,0.0,0.0,87,0.01,,,0.16,WUHU216HW,2013-03-20 12:10:00,
2013-03-20 05:15:00,47.5,43.8,29.13,North,0,0.0,0.0,87,0.01,,,0.16,WUHU216HW,2013-03-20 12:15:00,
2013-03-20 05:20:00,47.5,43.8,29.13,North,0,0.0,0.0,87,0.01,,,0.16,WUHU216HW,2013-03-20 12:20:00,
2013-03-20 05:25:00,47.5,43.8,29.13,North,0,0.0,0.0,87,0.01,,,0.16,WUHU216HW,2013-03-20 12:25:00,
2013-03-20 05:30:00,47.5,43.8,29.13,North,0,0.0,0.0,87,0.01,,,0.16,WUHU216HW,2013-03-20 12:30:00,
2013-03-20 05:35:00,47.5,43.8,29.13,North,0,0.0,0.0,87,0.02,,,0.17,WUHU216HW,2013-03-20 12:35:00,
2013-03-20 05:40:00,47.5,44.2,29.12,North,0,0.0,0.0,88,0.02,,,0.17,WUHU216HW,2013-03-20 12:40:00,
2013-03-20 05:45:00,47.3,44.0,29.12,North,0,0.0,0.0,88,0.03,,,0.18,WUHU216HW,2013-03-20 12:45:00,
2013-03-20 05:50:00,47.3,44.0,29.11,North,0,0.0,0.0,88,0.03,,,0.18,WUHU216HW,2013-03-20 12:50:00,
2013-03-20 05:55:00,47.3,44.0,29.10,North,0,0.0,0.0,88,0.04,,,0.19,WUHU216HW,2013-03-20 12:55:00,
2013-03-20 06:00:00,47.2,43.8,29.10,North,0,0.0,0.0,88,0.04,,,0.20,WUHU216HW,2013-03-20 13:00:00,
2013-03-20 06:05:00,47.2,43.8,29.11,North,0,0.0,0.0,88,0.04,,,0.20,WUHU216HW,2013-03-20 13:05:00,
2013-03-20 06:10:00,47.2,43.8,29.11,North,0,0.0,0.0,88,0.06,,,0.22,WUHU216HW,2013-03-20 13:10:00,
2013-03-20 06:15:00,47.2,44.2,29.11,North,0,0.0,0.0,89,0.08,,,0.24,WUHU216HW,2013-03-20 13:15:00,
2013-03-20 06:20:00,47.2,44.5,29.10,North,0,0.0,0.0,90,0.08,,,0.24,WUHU216HW,2013-03-20 13:20:00,
2013-03-20 06:25:00,47.2,44.5,29.10,North,0,0.0,0.0,90,0.08,,,0.24,WUHU216HW,2013-03-20 13:25:00,
2013-03-20 06:30:00,47.3,44.6,29.10,North,0,0.0,0.0,90,0.09,,,0.25,WUHU216HW,2013-03-20 13:30:00,
2013-03-20 06:35:00,47.3,44.6,29.10,North,0,0.0,0.0,90,0.09,,,0.26,WUHU216HW,2013-03-20 13:35:00,
2013-03-20 06:40:00,47.3,44.6,29.10,North,0,0.0,0.0,90,0.10,,,0.27,WUHU216HW,2013-03-20 13:40:00,
2013-03-20 06:45:00,47.3,44.9,29.09,North,0,0.0,0.0,91,0.10,,,0.28,WUHU216HW,2013-03-20 13:45:00,
2013-03-20 06:50:00,47.3,44.6,29.08,North,0,0.0,0.0,90,0.10,,,0.29,WUHU216HW,2013-03-20 13:50:00,
2013-03-20 06:55:00,47.3,44.6,29.08,North,0,0.0,0.0,90,0.10,,,0.29,WUHU216HW,2013-03-20 13:55:00,
2013-03-20 07:00:00,47.3,44.6,29.08,North,0,0.0,0.0,90,0.09,,,0.29,WUHU216HW,2013-03-20 14:00:00,
2013-03-20 07:05:00,47.3,44.6,29.08,North,0,0.0,0.0,90,0.08,,,0.29,WUHU216HW,2013-03-20 14:05:00,
2013-03-20 07:10:00,47.3,44.6,29.08,North,0,0.0,0.0,90,0.07,,,0.29,WUHU216HW,2013-03-20 14:10:00,
2013-03-20 07:15:00,47.3,44.6,29.08,North,0,0.0,0.0,90,0.05,,,0.29,WUHU216HW,2013-03-20 14:15:00,
2013-03-20 07:20:00,47.3,44.6,29.07,North,0,0.0,0.0,90,0.05,,,0.29,WUHU216HW,2013-03-20 14:20:00,
2013-03-20 07:25:00,47.5,44.8,29.07,North,0,0.0,0.0,90,0.05,,,0.29,WUHU216HW,2013-03-20 14:25:00,
2013-03-20 07:30:00,47.7,45.0,29.07,North,0,0.0,0.0,90,0.04,,,0.29,WUHU216HW,2013-03-20 14:30:00,
2013-03-20 07:35:00,47.7,45.0,29.07,North,0,0.0,0.0,90,0.04,,,0.30,WUHU216HW,2013-03-20 14:35:00,
2013-03-20 07:40:00,47.9,45.2,29.07,North,0,0.0,0.0,90,0.03,,,0.31,WUHU216HW,2013-03-20 14:40:00,
2013-03-20 07:45:00,47.9,45.2,29.07,North,0,0.0,0.0,90,0.04,,,0.32,WUHU216HW,2013-03-20 14:45:00,
2013-03-20 07:50:00,47.9,45.2,29.07,North,0,0.0,0.0,90,0.04,,,0.33,WUHU216HW,2013-03-20 14:50:00,
2013-03-20 07:55:00,47.9,45.2,29.07,North,0,0.0,0.0,90,0.04,,,0.33,WUHU216HW,2013-03-20 14:55:00,
2013-03-20 08:00:00,48.1,45.4,29.07,North,0,0.0,0.0,90,0.04,,,0.33,WUHU216HW,2013-03-20 15:00:00,
2013-03-20 08:05:00,48.1,45.4,29.07,North,0,0.0,0.0,90,0.04,,,0.33,WUHU216HW,2013-03-20 15:05:00,
2013-03-20 08:10:00,48.1,45.0,29.07,North,0,0.0,0.0,89,0.04,,,0.33,WUHU216HW,2013-03-20 15:10:00,
2013-03-20 08:15:00,47.9,45.2,29.07,North,0,0.0,0.0,90,0.04,,,0.33,WUHU216HW,2013-03-20 15:15:00,
2013-03-20 08:20:00,48.1,45.0,29.08,North,0,0.0,0.0,89,0.04,,,0.33,WUHU216HW,2013-03-20 15:20:00,
2013-03-20 08:25:00,48.1,45.0,29.08,North,0,0.0,0.0,89,0.04,,,0.33,WUHU216HW,2013-03-20 15:25:00,
2013-03-20 08:30:00,48.1,45.4,29.08,North,0,0.0,0.0,90,0.04,,,0.33,WUHU216HW,2013-03-20 15:30:00,
2013-03-20 08:35:00,48.1,45.4,29.08,North,0,0.0,0.0,90,0.05,,,0.35,WUHU216HW,2013-03-20 15:35:00,
2013-03-20 08:40:00,48.1,45.4,29.08,North,0,0.0,0.0,90,0.03,,,0.35,WUHU216HW,2013-03-20 15:40:00,
2013-03-20 08:45:00,48.1,45.4,29.08,North,0,0.0,0.0,90,0.03,,,0.35,WUHU216HW,2013-03-20 15:45:00,
2013-03-20 08:50:00,48.2,45.5,29.08,North,0,0.0,0.0,90,0.02,,,0.35,WUHU216HW,2013-03-20 15:50:00,
2013-03-20 08:55:00,48.2,45.5,29.07,North,0,0.0,0.0,90,0.02,,,0.35,WUHU216HW,2013-03-20 15:55:00,
2013-03-20 09:00:00,48.2,45.5,29.07,North,0,0.0,0.0,90,0.02,,,0.35,WUHU216HW,2013-03-20 16:00:00,
2013-03-20 09:05:00,48.2,45.5,29.07,North,0,0.0,0.0,90,0.02,,,0.35,WUHU216HW,2013-03-20 16:05:00,
2013-03-20 09:10:00,48.6,46.2,29.07,North,0,0.0,0.0,91,0.02,,,0.35,WUHU216HW,2013-03-20 16:10:00,
2013-03-20 09:15:00,48.6,46.2,29.07,North,0,0.0,0.0,91,0.02,,,0.35,WUHU216HW,2013-03-20 16:15:00,
2013-03-20 09:20:00,49.0,46.4,29.07,North,0,0.0,0.0,91,0.02,,,0.35,WUHU216HW,2013-03-20 16:20:00,
2013-03-20 09:25:00,49.3,46.8,29.08,North,0,0.0,0.0,91,0.02,,,0.35,WUHU216HW,2013-03-20 16:25:00,
2013-03-20 09:30:00,49.5,47.0,29.08,North,0,0.0,0.0,91,0.02,,,0.35,WUHU216HW,2013-03-20 16:30:00,
2013-03-20 09:35:00,49.7,46.8,29.08,North,0,0.0,0.0,90,0.00,,,0.35,WUHU216HW,2013-03-20 16:35:00,
2013-03-20 09:40:00,49.7,47.2,29.08,North,0,0.0,0.0,91,0.02,,,0.37,WUHU216HW,2013-03-20 16:40:00,
2013-03-20 09:45:00,50.0,47.2,29.08,North,0,0.0,0.0,90,0.02,,,0.37,WUHU216HW,2013-03-20 16:45:00,
2013-03-20 09:50:00,50.0,47.2,29.10,North,0,0.0,0.0,90,0.02,,,0.37,WUHU216HW,2013-03-20 16:50:00,
2013-03-20 09:55:00,50.2,47.3,29.10,North,0,0.0,0.0,90,0.02,,,0.37,WUHU216HW,2013-03-20 16:55:00,
2013-03-20 10:00:00,50.8,47.9,29.10,North,0,0.0,0.0,90,0.02,,,0.37,WUHU216HW,2013-03-20 17:00:00,
2013-03-20 10:05:00,51.1,48.0,29.10,North,0,0.0,0.0,89,0.02,,,0.37,WUHU216HW,2013-03-20 17:05:00,
2013-03-20 10:10:00,51.3,48.2,29.11,North,0,0.0,0.0,89,0.02,,,0.37,WUHU216HW,2013-03-20 17:10:00,
2013-03-20 10:15:00,51.3,47.8,29.11,North,0,0.0,0.0,88,0.02,,,0.37,WUHU216HW,2013-03-20 17:15:00,
2013-03-20 10:20:00,51.5,47.7,29.11,North,0,0.0,0.0,87,0.02,,,0.37,WUHU216HW,2013-03-20 17:20:00,
2013-03-20 10:25:00,51.5,47.3,29.11,North,0,0.0,0.0,86,0.02,,,0.37,WUHU216HW,2013-03-20 17:25:00,
2013-03-20 10:30:00,51.5,47.1,29.12,North,0,0.0,0.0,85,0.02,,,0.37,WUHU216HW,2013-03-20 17:30:00,
2013-03-20 10:35:00,51.5,46.8,29.13,North,0,0.0,0.0,84,0.02,,,0.37,WUHU216HW,2013-03-20 17:35:00,
2013-03-20 10:40:00,51.5,46.4,29.13,North,0,0.0,0.0,83,0.00,,,0.37,WUHU216HW,2013-03-20 17:40:00,
2013-03-20 10:45:00,51.8,46.8,29.14,North,0,0.0,0.0,83,0.00,,,0.37,WUHU216HW,2013-03-20 17:45:00,
2013-03-20 10:50:00,52.2,46.9,29.15,North,0,0.0,0.0,82,0.00,,,0.37,WUHU216HW,2013-03-20 17:50:00,
2013-03-20 10:55:00,52.6,47.3,29.15,North,0,0.0,0.0,82,0.00,,,0.37,WUHU216HW,2013-03-20 17:55:00,
2013-03-20 11:00:00,52.9,47.0,29.15,North,0,0.0,0.0,80,0.00,,,0.37,WUHU216HW,2013-03-20 18:00:00,
2013-03-20 11:05:00,52.9,47.0,29.16,North,0,0.0,0.0,80,0.00,,,0.37,WUHU216HW,2013-03-20 18:05:00,
2013-03-20 11:10:00,53.1,46.8,29.16,North,0,0.0,0.0,79,0.00,,,0.37,WUHU216HW,2013-03-20 18:10:00,
2013-03-20 11:15:00,53.3,46.6,29.16,North,0,0.0,0.0,78,0.00,,,0.37,WUHU216HW,2013-03-20 18:15:00,
2013-03-20 11:20:00,53.5,46.1,29.16,North,0,0.0,0.0,76,0.00,,,0.37,WUHU216HW,2013-03-20 18:20:00,
2013-03-20 11:25:00,53.6,46.3,29.17,North,0,0.0,0.0,76,0.00,,,0.37,WUHU216HW,2013-03-20 18:25:00,
2013-03-20 11:30:00,53.6,45.9,29.17,North,0,0.0,0.0,75,0.00,,,0.37,WUHU216HW,2013-03-20 18:30:00,
2013-03-20 11:35:00,53.8,46.1,29.18,North,0,0.0,0.0,75,0.00,,,0.37,WUHU216HW,2013-03-20 18:35:00,
2013-03-20 11:40:00,54.0,46.3,29.18,North,0,0.0,0.0,75,0.00,,,0.37,WUHU216HW,2013-03-20 18:40:00,
2013-03-20 11:45:00,54.4,46.6,29.18,North,0,0.0,0.0,75,0.00,,,0.37,WUHU216HW,2013-03-20 18:45:00,
2013-03-20 11:50:00,54.5,46.8,29.18,North,0,0.0,0.0,75,0.00,,,0.37,WUHU216HW,2013-03-20 18:50:00,
2013-03-20 14:44:00,54.7,44.4,29.28,North,0,0.0,0.0,68,0.00,,,0.37,WUHU216HW,2013-03-20 21:44:00,